Location: Beadle
(51.4667°N, 109.0000°W)
Time: 03:48:32
(UTC+00:00)

Altair - Pass Details

Date: 06 June 2022
Orbit: 1501 x 1682 km, 47.2° (Epoch: 30 June)

Event Time Altitude Azimuth Distance (km) Brightness Sun altitude
Rises 20:06:18 0° 215° (SW) 4,738 10.5 59.6°
Reaches altitude 10° 20:09:35 10° 208° (SSW) 3,781 10.2 59.4°
Maximum altitude 20:18:13 39° 144° (SE) 2,278 9.2 58.7°
Drops below altitude 10° 20:27:09 10° 81° (E) 3,914 9.5 58.0°
Sets 20:30:35 0° 74° (ENE) 4,920 9.9 57.7°
